Hourly Data Report for September 17, 2017

All times are specified in Local Standard Time (LST). Add 1 hour to adjust for Daylight Saving Time where and when it is observed.

BAKER LAKE A
NUNAVUT

64°17'56.000" N
96°04'40.000" W
18.60 m
2300503
71926
YBK

Download Data

Hourly Data (September 2017)
Hourly Data Report for September 17, 2017
Temp Definition
°C
Dew Point Temp Definition
°C
Rel Hum Definition
%
Wind Dir Definition
10's deg

Wind Spd Definition
km/h
Visibility Definition
km
Stn Press Definition
kPa
Hmdx Definition


Wind Chill Definition


Weather Definition


TIME
00:00 Legend Double Dagger 3.5 2.9 96 21 5 24.1 101.75     Mainly Clear
01:00 Legend Double Dagger 3.7 3.0 96 18 6 24.1 101.73     LegendNANA
02:00 Legend Double Dagger 3.7 3.1 96 19 11 24.1 101.72     LegendNANA
03:00 Legend Double Dagger 3.2 2.8 97 16 10 24.1 101.70     Clear
04:00 Legend Double Dagger 2.9 2.4 97 17 12 24.1 101.65     LegendNANA
05:00 Legend Double Dagger 3.7 3.3 97 16 8 32.2 101.61     LegendNANA
06:00 Legend Double Dagger 3.4 3.0 97 15 13 32.2 101.58     Clear
07:00 Legend Double Dagger 4.2 3.5 95 18 12 32.2 101.56     LegendNANA
08:00 Legend Double Dagger 6.0 4.4 89 16 12 40.2 101.53     LegendNANA
09:00 Legend Double Dagger 7.7 5.1 84 17 11 40.2 101.48     Clear
10:00 Legend Double Dagger 9.9 6.2 78 16 14 40.2 101.44     LegendNANA
11:00 Legend Double Dagger 12.6 5.9 64 17 14 40.2 101.41     LegendNANA
12:00 Legend Double Dagger 14.8 5.2 52 19 23 40.2 101.39     Clear
13:00 Legend Double Dagger 15.9 5.0 48 19 31 40.2 101.36     LegendNANA
14:00 Legend Double Dagger 16.0 4.2 45 21 32 40.2 101.34     LegendNANA
15:00 Legend Double Dagger 16.0 3.8 44 20 26 40.2 101.31     Clear
16:00 Legend Double Dagger 15.8 2.1 39 21 21 40.2 101.27     LegendNANA
17:00 Legend Double Dagger 13.8 7.1 64 18 20 40.2 101.25     LegendNANA
18:00 Legend Double Dagger 10.3 7.2 81 17 11 40.2 101.24     Mainly Clear
19:00 Legend Double Dagger 7.8 5.8 87 25 4 40.2 101.24     LegendNANA
20:00 Legend Double Dagger 8.1 6.3 89 19 16 24.1 101.26     LegendNANA
21:00 Legend Double Dagger 6.0 5.0 94 20 6 24.1 101.28     Clear
22:00 Legend Double Dagger 5.3 4.6 95 18 9 24.1 101.28     LegendNANA
23:00 Legend Double Dagger 4.7 4.2 97 17 11 24.1 101.25     LegendNANA

Notes on Data Quality.

Legend

  • E = Estimated
  • M = Missing
  • NA = Not Available
  • ‡ = Partner data that is not subject to review by the National Climate Archives
Date modified: